OE7SBH-WX Weather Reports


Display with metric or nautical units.
time (UTC)temp
F
wind
direction
speed
MPH
gust
MPH
rain 1hr
in
rain 24hr
in
rain mn
in
humidity
%
barometer
mb
20260510065027 54 104 1.0 2.0 0.00 0.00 0.00 74 1018.4
20260510064015 53 84 1.0 2.0 0.00 0.00 0.00 75 1018.5
20260510063034 52 126 1.0 2.0 0.00 0.00 0.00 77 1018.7
20260510062022 50 161 1.0 2.0 0.00 0.00 0.00 82 1018.6
20260510061022 50 158 1.0 2.0 0.00 0.00 0.00 82 1018.8
20260510060019 49 146 1.0 2.0 0.00 0.00 0.00 82 1018.9
20260510055053 49 145 2.0 2.0 0.00 0.00 0.00 83 1019.2
20260510054053 48 8 0.0 1.0 0.00 0.00 0.00 84 1019.2
20260510053033 48 25 0.0 2.0 0.00 0.00 0.00 85 1019.5
20260510052029 47 13 0.0 1.0 0.00 0.00 0.00 87 1019.5
20260510051051 44 0.0 0.0 0.00 0.00 0.00 91 1019.5
20260510050027 44 11 0.0 1.0 0.00 0.00 0.00 91 1019.5
20260510045048 44 20 0.0 1.0 0.00 0.00 0.00 90 1019.5
20260510044016 43 0.0 0.0 0.00 0.00 0.00 91 1019.7
20260510043053 44 140 0.0 1.0 0.00 0.00 0.00 91 1019.8
20260510042019 44 56 0.0 1.0 0.00 0.00 0.00 90 1019.9
20260510041033 44 0.0 0.0 0.00 0.00 0.00 90 1019.9
20260510040033 44 0.0 0.0 0.00 0.00 0.00 89 1019.9
20260510035033 44 0.0 0.0 0.00 0.00 0.00 89 1020.1
20260510034028 44 325 0.0 1.0 0.00 0.00 0.00 90 1020.2
20260510033030 45 63 0.0 2.0 0.00 0.00 0.00 89 1020.3
20260510032027 45 316 0.0 1.0 0.00 0.00 0.00 88 1020.3
20260510031028 45 287 0.0 1.0 0.00 0.00 0.00 88 1020.4
20260510030015 45 273 1.0 2.0 0.00 0.00 0.00 87 1020.4
20260510025023 45 0.0 0.0 0.00 0.00 0.00 87 1020.3
20260510024020 45 320 0.0 1.0 0.00 0.00 0.00 87 1020.4
20260510023034 45 318 0.0 2.0 0.00 0.00 0.00 87 1020.5
20260510022033 46 14 0.0 1.0 0.00 0.00 0.00 86 1020.5
20260510021030 46 348 1.0 2.0 0.00 0.00 0.00 87 1020.5
20260510020019 46 0.0 0.0 0.00 0.00 0.00 86 1020.4
20260510015029 47 347 0.0 1.0 0.00 0.00 0.00 84 1020.4
20260510014017 47 347 1.0 1.0 0.00 0.00 0.00 84 1020.4
20260510013027 47 0.0 0.0 0.00 0.00 0.00 84 1020.7
20260510012114 47 311 1.0 1.0 0.00 0.00 0.00 85 1020.5
20260510011030 47 35 1.0 2.0 0.00 0.00 0.00 85 1020.4
20260510010018 48 341 0.0 1.0 0.00 0.00 0.00 82 1020.5
20260510005028 47 341 0.0 1.0 0.00 0.00 0.00 83 1020.7
20260510004055 49 308 0.0 1.0 0.00 0.00 0.00 80 1020.7
20260510003033 48 332 1.0 3.0 0.00 0.00 0.00 81 1020.7
20260510002019 50 342 0.0 2.0 0.00 0.00 0.00 79 1020.7
20260510001033 49 341 2.0 2.0 0.00 0.00 0.00 80 1020.8
20260510000033 50 28 0.0 1.0 0.00 0.00 0.00 79 1020.9
20260509235034 51 334 0.0 1.0 0.00 0.00 0.00 77 1021.0
20260509234020 51 334 3.0 4.0 0.00 0.00 0.00 76 1021.0
20260509233034 53 144 1.0 3.0 0.00 0.00 0.00 71 1021.1
20260509232032 53 282 1.0 2.0 0.00 0.00 0.00 72 1021.2
20260509231031 55 117 2.0 4.0 0.00 0.00 0.00 70 1021.2
20260509230045 55 149 2.0 6.0 0.00 0.00 0.00 69 1021.2
20260509225033 53 127 1.0 4.0 0.00 0.00 0.00 72 1021.2
20260509224019 54 178 2.0 3.0 0.00 0.00 0.00 71 1021.3
20260509223028 54 199 1.0 4.0 0.00 0.00 0.00 71 1021.4
20260509222015 54 185 1.0 3.0 0.00 0.00 0.00 72 1021.6
20260509221033 53 198 2.0 3.0 0.00 0.00 0.00 72 1021.5
20260509220019 54 233 1.0 2.0 0.00 0.00 0.00 72 1021.5
20260509215033 54 252 1.0 3.0 0.00 0.00 0.00 71 1021.4
20260509214033 55 159 1.0 3.0 0.00 0.00 0.00 69 1021.5
20260509213134 55 281 1.0 3.0 0.00 0.00 0.00 70 1021.5
20260509212033 54 319 0.0 1.0 0.00 0.00 0.00 73 1021.5
20260509211033 54 331 0.0 1.0 0.00 0.00 0.00 72 1021.5
20260509210026 54 12 1.0 1.0 0.00 0.00 0.00 71 1021.5
20260509205027 56 258 1.0 2.0 0.00 0.00 0.00 67 1021.6
20260509204054 56 248 1.0 3.0 0.00 0.00 0.00 69 1021.5
20260509203053 56 347 0.0 2.0 0.00 0.00 0.00 69 1021.6
20260509202016 56 223 2.0 3.0 0.00 0.00 0.00 69 1021.4
20260509201053 56 294 1.0 2.0 0.00 0.00 0.00 68 1021.4
20260509200020 56 314 0.0 2.0 0.00 0.00 0.00 68 1021.3
20260509195053 57 7 1.0 3.0 0.00 0.00 0.00 66 1021.2
20260509194033 59 289 1.0 3.0 0.00 0.00 0.00 63 1021.3
20260509193033 58 293 1.0 3.0 0.00 0.00 0.00 64 1021.4
20260509192028 59 305 0.0 2.0 0.00 0.00 0.00 64 1021.3
20260509191030 59 153 1.0 2.0 0.00 0.00 0.00 63 1021.2
20260509190029 60 191 2.0 4.0 0.00 0.00 0.00 62 1021.0
20260509185050 59 164 2.0 8.0 0.00 0.00 0.00 63 1021.0
20260509184058 60 137 1.0 4.0 0.00 0.00 0.00 62 1020.8
20260509183027 61 154 3.0 6.0 0.00 0.00 0.00 60 1020.6
20260509182034 61 174 3.0 6.0 0.00 0.00 0.00 59 1020.5
20260509181033 62 173 4.0 10.0 0.00 0.00 0.00 57 1020.6
20260509180037 61 193 2.0 6.0 0.00 0.00 0.00 58 1020.6
20260509175033 62 185 2.0 3.0 0.00 0.00 0.00 57 1020.4
20260509174022 62 231 4.0 9.0 0.00 0.00 0.00 57 1020.4
20260509173022 63 175 3.0 8.0 0.00 0.00 0.00 55 1020.3
20260509172019 62 192 2.0 6.0 0.00 0.00 0.00 59 1020.4
20260509171033 64 174 2.0 6.0 0.00 0.00 0.00 53 1020.4
20260509170040 65 165 5.0 11.0 0.00 0.00 0.00 51 1020.5
20260509165033 66 157 8.0 14.0 0.00 0.00 0.00 49 1020.4
20260509164109 66 153 7.0 16.0 0.00 0.00 0.00 50 1020.4
20260509163031 66 147 9.0 16.0 0.00 0.00 0.00 49 1020.8
20260509162019 66 143 14.0 19.0 0.00 0.00 0.00 50 1020.9
20260509161029 66 145 14.0 21.0 0.00 0.00 0.00 51 1021.1
20260509160026 65 143 13.0 22.0 0.00 0.00 0.00 53 1021.2
20260509155032 65 143 13.0 24.0 0.00 0.00 0.00 54 1021.2
20260509154019 65 142 13.0 21.0 0.00 0.00 0.00 54 1021.4
20260509153033 65 143 14.0 21.0 0.00 0.00 0.00 54 1021.5
20260509152033 65 144 14.0 22.0 0.00 0.00 0.00 55 1021.6
20260509151033 64 143 15.0 22.0 0.00 0.00 0.00 56 1021.7
20260509150039 65 155 14.0 22.0 0.00 0.00 0.00 54 1021.7
20260509145031 65 145 14.0 23.0 0.00 0.00 0.00 52 1021.7
20260509144019 66 166 11.0 19.0 0.00 0.00 0.00 51 1021.6
20260509143030 66 164 7.0 17.0 0.00 0.00 0.00 49 1021.7
20260509142023 66 166 8.0 18.0 0.00 0.00 0.00 50 1021.6
20260509141020 66 163 8.0 17.0 0.00 0.00 0.00 50 1021.7
20260509140032 66 174 8.0 17.0 0.00 0.00 0.00 52 1021.9
20260509135034 66 164 10.0 17.0 0.00 0.00 0.00 52 1021.7
20260509134019 66 157 6.0 10.0 0.00 0.00 0.00 58 1021.6
20260509133030 67 143 6.0 9.0 0.00 0.00 0.00 52 1021.5
20260509132022 68 161 6.0 10.0 0.00 0.00 0.00 54 1021.4
20260509131020 68 148 5.0 9.0 0.00 0.00 0.00 54 1021.6
20260509130032 66 233 2.0 4.0 0.00 0.00 0.00 57 1021.6
20260509125033 65 309 2.0 6.0 0.00 0.00 0.00 58 1021.6
20260509124028 64 317 7.0 14.0 0.00 0.00 0.00 63 1021.5
20260509123030 65 325 8.0 15.0 0.00 0.00 0.00 62 1021.2
20260509122019 66 323 9.0 15.0 0.00 0.00 0.00 54 1021.1
20260509121028 67 333 12.0 18.0 0.00 0.00 0.00 54 1021.0
20260509120016 68 329 10.0 19.0 0.00 0.00 0.00 52 1020.9
20260509115021 70 331 11.0 18.0 0.00 0.00 0.00 48 1020.8
20260509114032 72 339 3.0 10.0 0.00 0.00 0.00 44 1020.7
20260509113053 73 333 2.0 6.0 0.00 0.00 0.00 43 1020.9
20260509112018 70 158 3.0 4.0 0.00 0.00 0.00 46 1020.9
20260509111030 70 153 3.0 7.0 0.00 0.00 0.00 47 1021.1
20260509110018 68 340 1.0 3.0 0.00 0.00 0.00 49 1021.2
20260509105048 68 327 3.0 6.0 0.00 0.00 0.00 50 1021.3
20260509104015 68 344 4.0 8.0 0.00 0.00 0.00 50 1021.6
20260509103033 67 13 2.0 6.0 0.00 0.00 0.00 53 1021.8
20260509102019 66 346 3.0 8.0 0.00 0.00 0.00 53 1022.0
20260509101033 66 335 4.0 7.0 0.00 0.00 0.00 54 1022.1
20260509100046 67 335 4.0 9.0 0.00 0.00 0.00 53 1022.2
20260509095028 67 327 4.0 8.0 0.00 0.00 0.00 53 1022.4
20260509094016 66 355 3.0 8.0 0.00 0.00 0.00 54 1022.5
20260509093113 66 324 3.0 8.0 0.00 0.00 0.00 54 1022.7
20260509092020 65 333 2.0 8.0 0.00 0.00 0.00 55 1022.7
20260509091034 65 348 2.0 4.0 0.00 0.00 0.00 57 1022.9
20260509090107 65 335 5.0 8.0 0.00 0.00 0.00 59 1022.9
20260509085028 64 90 2.0 4.0 0.00 0.00 0.00 61 1023.1
20260509084036 64 51 1.0 2.0 0.00 0.00 0.00 60 1023.2
20260509083021 63 55 2.0 3.0 0.00 0.00 0.00 64 1023.3
20260509082033 63 116 2.0 4.0 0.00 0.00 0.00 64 1023.3
20260509081034 62 159 3.0 4.0 0.00 0.00 0.00 66 1023.5
20260509080019 61 198 2.0 4.0 0.00 0.00 0.00 67 1023.7
20260509075050 59 154 2.0 4.0 0.00 0.00 0.00 71 1023.8
20260509074023 57 21 2.0 3.0 0.00 0.00 0.00 73 1023.9
20260509073027 57 13 2.0 6.0 0.00 0.00 0.00 73 1023.9
20260509072032 56 338 3.0 4.0 0.00 0.00 0.00 74 1024.0
20260509071034 55 18 2.0 3.0 0.00 0.00 0.00 77 1024.1
20260509070107 54 25 3.0 7.0 0.00 0.00 0.00 78 1024.1